Location: ???? ???? ?????
(31.2680°N, 31.7283°E)
Time: 19:56:04
(UTC+00:00)

GPS 2-04 Rocket1 - Pass Details

Date: 13 July 2020
Orbit: 418 x 549 km, 35.6° (Epoch: 05 August)

Event Time Altitude Azimuth Distance (km) Brightness Sun altitude
Rises 17:51:39 0° 205° (SSW) 2,358 6.0 -10.6°
Reaches altitude 10° 17:54:41 10° 175° (S) 1,485 4.7 -11.1°
Enters shadow 17:55:29 12° 162° (SSE) 1,362 4.4 -11.2°
